User: anonymous
Location: NJAA Observatory
(40.6819°N, 74.8979°W)
Time: 04:15:40
(UTC-04:00)
Language:

Tiros 2 - Orbit

View from above orbital plane
View from above orbital plane
View from above satellite
View from above satellite

Ground track
Ground track

The orbit data is extracted from the following two-line orbital elements,

1 00063U 60016A   14109.79650050  .00335548  54012-4  91831-3 0  3543
2 00063 048.5003 078.4860 0002851 169.2480 190.8543 15.93440516911795
Epoch (UTC): 19 April 2014 19:06:57
Eccentricity: 0.0002851
inclination: 48.5003°
perigee height: 291 km
apogee height: 294 km
right ascension of ascending node: 78.4860°
argument of perigee: 169.2480°
revolutions per day: 15.93440516
mean anomaly at epoch: 190.8543°
orbit number at epoch: 91179

The dashed part of the orbit path shows where the satellite is in the earth's shadow,  

DLR